TimeEDT,TemperatureF,Dew PointF,Humidity,Sea Level PressureIn,VisibilityMPH,Wind Direction,Wind SpeedMPH,Gust SpeedMPH,PrecipitationIn,Events,Conditions,WindDirDegrees,DateUTC
12:35 AM,71.6,68.0,88,29.56,10.0,SSW,4.6,-,N/A,,Scattered Clouds,200,2013-06-29 04:35:00
12:52 AM,72.0,68.0,87,29.57,10.0,WSW,5.8,-,N/A,,Scattered Clouds,240,2013-06-29 04:52:00
1:52 AM,71.1,66.9,87,29.55,10.0,SW,5.8,-,N/A,,Partly Cloudy,220,2013-06-29 05:52:00
2:52 AM,71.1,66.9,87,29.55,10.0,South,3.5,-,N/A,,Scattered Clouds,180,2013-06-29 06:52:00
3:52 AM,70.0,66.9,90,29.55,9.0,SW,4.6,-,N/A,,Partly Cloudy,220,2013-06-29 07:52:00
4:52 AM,71.1,66.9,87,29.55,10.0,South,5.8,-,N/A,,Partly Cloudy,180,2013-06-29 08:52:00
5:52 AM,71.1,68.0,90,29.56,9.0,SSE,3.5,-,N/A,,Scattered Clouds,150,2013-06-29 09:52:00
6:52 AM,72.0,69.1,91,29.58,9.0,Calm,Calm,-,N/A,,Scattered Clouds,0,2013-06-29 10:52:00
7:39 AM,73.4,69.8,88,29.60,8.0,WSW,5.8,-,N/A,,Mostly Cloudy,240,2013-06-29 11:39:00
7:52 AM,73.9,70.0,87,29.60,8.0,SW,3.5,-,N/A,,Scattered Clouds,220,2013-06-29 11:52:00
8:52 AM,77.0,69.1,76,29.62,10.0,WSW,3.5,-,N/A,,Scattered Clouds,240,2013-06-29 12:52:00
9:52 AM,81.0,66.0,60,29.62,10.0,NNW,4.6,-,N/A,,Scattered Clouds,330,2013-06-29 13:52:00
10:52 AM,82.9,64.0,53,29.62,10.0,North,8.1,-,N/A,,Scattered Clouds,10,2013-06-29 14:52:00
11:52 AM,84.9,63.0,48,29.62,10.0,Variable,4.6,-,N/A,,Scattered Clouds,0,2013-06-29 15:52:00
12:52 PM,87.1,59.0,39,29.62,10.0,Calm,Calm,-,N/A,,Partly Cloudy,0,2013-06-29 16:52:00
1:52 PM,84.9,63.0,48,29.62,10.0,South,11.5,-,N/A,,Scattered Clouds,180,2013-06-29 17:52:00
2:52 PM,84.0,60.1,44,29.62,10.0,South,15.0,-,N/A,,Scattered Clouds,170,2013-06-29 18:52:00
3:52 PM,86.0,62.1,44,29.62,10.0,SSE,9.2,-,N/A,,Scattered Clouds,160,2013-06-29 19:52:00
4:52 PM,87.1,64.0,46,29.62,10.0,South,13.8,-,N/A,,Scattered Clouds,170,2013-06-29 20:52:00
5:52 PM,87.1,63.0,44,29.62,10.0,South,9.2,-,N/A,,Scattered Clouds,170,2013-06-29 21:52:00
6:52 PM,86.0,64.0,48,29.62,10.0,South,10.4,-,N/A,,Scattered Clouds,180,2013-06-29 22:52:00
7:52 PM,84.0,64.0,51,29.65,10.0,South,9.2,-,N/A,,Scattered Clouds,180,2013-06-29 23:52:00
8:52 PM,82.9,66.0,56,29.66,10.0,South,6.9,-,N/A,,Scattered Clouds,170,2013-06-30 00:52:00
9:52 PM,81.0,69.1,67,29.68,10.0,SSE,5.8,-,N/A,,Scattered Clouds,150,2013-06-30 01:52:00
10:52 PM,80.1,70.0,71,29.69,10.0,South,8.1,-,N/A,,Partly Cloudy,180,2013-06-30 02:52:00
11:52 PM,79.0,71.1,77,29.70,10.0,South,10.4,-,N/A,,Scattered Clouds,190,2013-06-30 03:52:00